Weather History for Madison, SD

Change the Weather History Date:

Friday, April 19, 2013

  Actual Average Record
Temperature  
Mean Temperature 26 °F -  
Max Temperature 32 °F 59 °F 66 °F (2014)
Min Temperature 21 °F 38 °F 21 °F (2013)
Degree Days  
Heating Degree Days 38    
Moisture  
Dew Point 24 °F    
Average Humidity 92    
Maximum Humidity 100    
Minimum Humidity 64    
Precipitation  
Precipitation 0.00 in - - ()
Sea Level Pressure  
Sea Level Pressure 29.90 in    
Wind  
Wind Speed 20 mph (NW)    
Max Wind Speed 26 mph    
Max Gust Speed 31 mph    
Visibility 10 miles    
Events      
Averages and records for this station are not official NWS values.
T = Trace of Precipitation, MM = Missing Value Source: NWS Daily Summary

Daily Weather History Graph

Daily Weather History Graph

Search for Another Location

Airport:

Trip Planner

Search our weather history database for the weather conditions in past years. The results will help you decide how hot, cold, wet, or windy it might be!

Date:

Astronomy

Apr. 19, 2013 Rise Set
Actual Time 6:37 AM CDT 8:17 PM CDT
Civil Twilight 6:07 AM CDT 8:48 PM CDT
Nautical Twilight 5:30 AM CDT 9:25 PM CDT
Astronomical Twilight 4:50 AM CDT 10:05 PM CDT
Moon 1:50 PM CDT (4/19) 3:07 AM CDT (4/19)
Length of Visible Light 14h 40m
Length of Day
13h 39m
First Quarter, 62% of the Moon is Illuminated
Apr 19
First Quarter
Apr 25
Full
May 2
Last Quarter
May 9
New
May 17
First Quarter

Hourly Weather History & Observations

Time (CDT) Temp. Windchill Dew Point Humidity Pressure Visibility Wind Dir Wind Speed Gust Speed Precip Events Conditions
12:15 AM 24.8 °F 8.7 °F 24.8 °F 100% 29.81 in 10.0 mi NNW 26.5 mph 31.1 mph N/A   Clear
12:35 AM 24.8 °F 9.3 °F 24.8 °F 100% 29.80 in 10.0 mi NNW 24.2 mph - N/A   Clear
12:55 AM 23.0 °F 7.2 °F 23.0 °F 100% 29.80 in 10.0 mi NW 23.0 mph - N/A   Clear
1:15 AM 23.0 °F 6.6 °F 23.0 °F 100% 29.80 in 10.0 mi NW 25.3 mph - N/A   Clear
1:35 AM 23.0 °F 7.6 °F 23.0 °F 100% 29.79 in 10.0 mi NW 21.9 mph 28.8 mph N/A   Clear
1:55 AM 23.0 °F 7.6 °F 23.0 °F 100% 29.79 in 10.0 mi NW 21.9 mph - N/A   Clear
2:15 AM 23.0 °F 8.0 °F 23.0 °F 100% 29.78 in 10.0 mi NNW 20.7 mph - N/A   Clear
2:35 AM 23.0 °F 7.2 °F 23.0 °F 100% 29.78 in 10.0 mi NNW 23.0 mph 29.9 mph N/A   Clear
2:55 AM 21.2 °F 4.9 °F 21.2 °F 100% 29.78 in 10.0 mi NW 23.0 mph - N/A   Clear
3:15 AM 21.2 °F 5.6 °F 21.2 °F 100% 29.78 in 10.0 mi NW 20.7 mph - N/A   Clear
3:35 AM 21.2 °F 5.6 °F 21.2 °F 100% 29.77 in 10.0 mi NW 20.7 mph - N/A   Clear
3:55 AM 21.2 °F 5.6 °F 21.2 °F 100% 29.78 in 10.0 mi NW 20.7 mph 26.5 mph N/A   Clear
4:15 AM 21.2 °F 5.2 °F 21.2 °F 100% 29.78 in 10.0 mi NW 21.9 mph 27.6 mph N/A   Clear
4:35 AM 21.2 °F 6.4 °F 21.2 °F 100% 29.78 in 10.0 mi NW 18.4 mph - N/A   Clear
4:55 AM 21.2 °F 6.0 °F 21.2 °F 100% 29.78 in 10.0 mi NW 19.6 mph 24.2 mph N/A   Clear
5:35 AM 21.2 °F 5.6 °F 21.2 °F 100% 29.78 in 10.0 mi NW 20.7 mph 26.5 mph N/A   Scattered Clouds
5:55 AM 21.2 °F 6.0 °F 21.2 °F 100% 29.78 in 10.0 mi NW 19.6 mph 25.3 mph N/A   Mostly Cloudy
6:15 AM 21.2 °F 6.4 °F 21.2 °F 100% 29.79 in 10.0 mi NW 18.4 mph - N/A   Mostly Cloudy
6:35 AM 21.2 °F 5.6 °F 21.2 °F 100% 29.79 in 10.0 mi NW 20.7 mph - N/A   Clear
6:55 AM 23.0 °F 8.0 °F 23.0 °F 100% 29.80 in 10.0 mi NW 20.7 mph - N/A   Clear
7:15 AM 23.0 °F 8.7 °F 23.0 °F 100% 29.80 in 10.0 mi NW 18.4 mph - N/A   Clear
7:35 AM 23.0 °F 8.7 °F 23.0 °F 100% 29.81 in 10.0 mi NW 18.4 mph - N/A   Clear
7:55 AM 23.0 °F 9.2 °F 23.0 °F 100% 29.82 in 10.0 mi NW 17.3 mph - N/A   Clear
8:15 AM 23.0 °F 9.2 °F 23.0 °F 100% 29.82 in 10.0 mi NW 17.3 mph - N/A   Clear
8:35 AM 24.8 °F 11.1 °F 24.8 °F 100% 29.82 in 10.0 mi NW 18.4 mph - N/A   Clear
8:55 AM 24.8 °F 11.1 °F 24.8 °F 100% 29.82 in 10.0 mi NW 18.4 mph - N/A   Clear
9:35 AM 24.8 °F 11.1 °F 24.8 °F 100% 29.84 in 10.0 mi NW 18.4 mph 21.9 mph N/A   Clear
9:55 AM 26.6 °F 12.7 °F 26.6 °F 100% 29.84 in 10.0 mi NNW 20.7 mph 24.2 mph N/A   Clear
10:15 AM 26.6 °F 13.1 °F 26.6 °F 100% 29.85 in 10.0 mi NW 19.6 mph - N/A   Clear
10:35 AM 26.6 °F 13.1 °F 26.6 °F 100% 29.85 in 10.0 mi NW 19.6 mph - N/A   Clear
10:55 AM 26.6 °F 13.8 °F 26.6 °F 100% 29.86 in 10.0 mi NW 17.3 mph - N/A   Clear
11:15 AM 26.6 °F 13.1 °F 26.6 °F 100% 29.87 in 10.0 mi NW 19.6 mph 26.5 mph N/A   Clear
11:35 AM 28.4 °F 15.1 °F 26.6 °F 93% 29.87 in 10.0 mi NW 20.7 mph - N/A   Clear
11:55 AM 28.4 °F 16.2 °F 28.4 °F 100% 29.89 in 10.0 mi NW 17.3 mph - N/A   Clear
12:15 PM 28.4 °F 15.8 °F 28.4 °F 100% 29.89 in 10.0 mi NW 18.4 mph 25.3 mph N/A   Clear
12:35 PM 28.4 °F 14.7 °F 26.6 °F 93% 29.90 in 10.0 mi NW 21.9 mph 25.3 mph N/A   Clear
12:55 PM 30.2 °F 17.4 °F 26.6 °F 86% 29.90 in 10.0 mi NNW 20.7 mph - N/A   Clear
1:15 PM 30.2 °F 17.1 °F 26.6 °F 86% 29.91 in 10.0 mi NW 21.9 mph - N/A   Clear
1:35 PM 32.0 °F 19.8 °F 26.6 °F 80% 29.92 in 10.0 mi NW 20.7 mph 27.6 mph N/A   Clear
1:55 PM 32.0 °F 18.9 °F 26.6 °F 80% 29.92 in 10.0 mi NNW 24.2 mph 28.8 mph N/A   Clear
2:15 PM 32.0 °F 19.5 °F 24.8 °F 75% 29.93 in 10.0 mi NNW 21.9 mph 29.9 mph N/A   Clear
2:35 PM 32.0 °F 19.8 °F 24.8 °F 75% 29.93 in 10.0 mi NNW 20.7 mph 27.6 mph N/A   Clear
2:55 PM 32.0 °F 19.5 °F 24.8 °F 75% 29.94 in 10.0 mi NNW 21.9 mph 27.6 mph N/A   Clear
3:15 PM 32.0 °F 20.1 °F 24.8 °F 75% 29.94 in 10.0 mi NNW 19.6 mph 26.5 mph N/A   Clear
3:35 PM 32.0 °F 19.2 °F 23.0 °F 69% 29.94 in 10.0 mi NNW 23.0 mph 27.6 mph N/A   Clear
3:55 PM 32.0 °F 19.5 °F 23.0 °F 69% 29.95 in 10.0 mi NNW 21.9 mph 29.9 mph N/A   Clear
4:15 PM 32.0 °F 19.5 °F 23.0 °F 69% 29.96 in 10.0 mi NNW 21.9 mph 28.8 mph N/A   Clear
4:35 PM 32.0 °F 19.8 °F 23.0 °F 69% 29.96 in 10.0 mi NNW 20.7 mph - N/A   Clear
4:55 PM 32.0 °F 20.1 °F 23.0 °F 69% 29.97 in 10.0 mi NNW 19.6 mph - N/A   Clear
5:15 PM 32.0 °F 20.1 °F 23.0 °F 69% 29.98 in 10.0 mi NNW 19.6 mph 23.0 mph N/A   Clear
5:35 PM 32.0 °F 20.5 °F 23.0 °F 69% 29.98 in 10.0 mi NNW 18.4 mph 23.0 mph N/A   Clear
5:55 PM 32.0 °F 20.8 °F 23.0 °F 69% 29.99 in 10.0 mi NNW 17.3 mph - N/A   Clear
6:15 PM 32.0 °F 21.2 °F 21.2 °F 64% 30.00 in 10.0 mi NNW 16.1 mph - N/A   Clear
6:35 PM 30.2 °F 18.9 °F 23.0 °F 75% 30.00 in 10.0 mi NNW 16.1 mph - N/A   Clear
6:55 PM 30.2 °F 18.9 °F 24.8 °F 80% 30.00 in 10.0 mi NNW 16.1 mph - N/A   Clear
7:15 PM 28.4 °F 17.5 °F 24.8 °F 86% 30.01 in 10.0 mi NNW 13.8 mph 19.6 mph N/A   Clear
7:35 PM 28.4 °F 18.0 °F 24.8 °F 86% 30.02 in 10.0 mi NNW 12.7 mph - N/A   Clear
7:55 PM 26.6 °F 16.2 °F 24.8 °F 93% 30.02 in 10.0 mi NNW 11.5 mph - N/A   Clear
8:15 PM 26.6 °F 16.8 °F 24.8 °F 93% 30.02 in 10.0 mi NNW 10.4 mph - N/A   Clear
8:35 PM 26.6 °F 16.8 °F 24.8 °F 93% 30.03 in 10.0 mi NNW 10.4 mph - N/A   Clear
8:55 PM 26.6 °F 16.2 °F 23.0 °F 86% 30.04 in 10.0 mi NNW 11.5 mph - N/A   Clear
9:15 PM 23.0 °F 11.7 °F 23.0 °F 100% 30.05 in 10.0 mi NNW 11.5 mph - N/A   Clear
9:35 PM 24.8 °F 15.3 °F 24.8 °F 100% 30.06 in 10.0 mi NNW 9.2 mph - N/A   Clear
9:55 PM 23.0 °F 12.4 °F 23.0 °F 100% 30.06 in 10.0 mi NNW 10.4 mph - N/A   Clear
10:15 PM 23.0 °F 13.1 °F 23.0 °F 100% 30.07 in 10.0 mi NNW 9.2 mph - N/A   Clear
10:35 PM 23.0 °F 13.9 °F 23.0 °F 100% 30.06 in 10.0 mi NNW 8.1 mph - N/A   Clear
10:55 PM 21.2 °F 10.1 °F 21.2 °F 100% 30.06 in 10.0 mi NW 10.4 mph - N/A   Clear
11:15 PM 21.2 °F 11.7 °F 21.2 °F 100% 30.07 in 10.0 mi NW 8.1 mph - N/A   Clear